Location: Newark
(39.0622°N, 106.5590°E)
Time: 23:05:14
(UTC+00:00)

Vanguard 2 Rocket - Pass Details

Date: 25 January 2020
Orbit: 554 x 3327 km, 32.9° (Epoch: 19 February)

Event Time Altitude Azimuth Distance (km) Brightness Sun altitude
Rises 05:44:39 0° 259° (W) 5,204 11.0 31.1°
Reaches altitude 10° 05:51:40 10° 230° (SW) 4,909 11.5 30.9°
Maximum altitude 05:55:41 12° 214° (SW) 5,114 12.1 30.7°
Drops below altitude 10° 06:00:10 10° 198° (SSW) 5,582 12.5 30.5°
Sets 06:10:28 0° 172° (S) 7,127 12.4 29.9°
